STARLINK-4660 (53609 NORAD) Tracking and Keplerian Element Data

This shows tracking and keplerian element data for the satellite.

Feedback or suggestion? Click here.




ElementValue
Catalog53609
NameSTARLINK-4660
Epoch Orbit130
Epoch Day324.91667824
Epoch Year2022
RAAN247.333
Inclination53.2154
Eccentricity0.0001821
Argument of Perigee55.7454
Mean Anonmoly111.2045
Mean Motion15.08861192
Decay Rate-0.00053924
L11 53609U 22104X 22324.91667824 -.00053924 00000+0 -33935-2 0 9997
L22 53609 53.2154 247.3330 0001821 55.7454 111.2045 15.08861192 1308



Live tracking and technical data element details for STARLINK-4660 (NORAD 53609). STARLINK-4660 can be tracked NOW for your location showing map with azimuth and elevation plus other details from your city location.







IsCatalogInMostPopularTable: catalog: 53609, numindb: 1
Update: records affected: 1



GetName: 53609 STARLINK-4660

Hit Count: updated at: Thu, 08 Dec 2022 19:19:28 GMT